Temperature
0 0 0 1 1 1 1 1 0 0 1 1 2 2 3 3 3 4 4 4 4 5 5 5 5 5 5 5 5 6 6 6 6 6 6 6 5 5
-1 -0 -0 -0 0 0 0 0 0 0 0 1 1 2 2 2 2 3 3 4 4 4 4 4 5 5 5 5 5 5 5 5 5 5 5 5 5 5
-1 -1 -1 -1 -1 -0 -0 -0 -0 -0 -0 0 1 1 1 2 2 2 2 3 3 4 4 4 4 4 4 5 5 5 5 5 5 5 5 5 5 4
-2 -2 -2 -2 -1 -1 -1 -1 -1 -1 -1 -0 -0 0 1 1 1 1 2 2 2 3 3 3 3 4 4 4 4 4 4 4 4 4 4 4 4 4
-2 -2 -2 -2 -2 -2 -2 -1 -1 -1 -1 -1 -1 -1 -0 0 0 1 1 1 2 2 2 2 3 3 3 3 4 4 4 4 4 4 4 4 4 4
-3 -3 -3 -3 -3 -3 -2 -2 -2 -2 -2 -2 -2 -2 -1 -1 -0 0 0 1 1 1 1 2 2 2 3 3 3 3 3 3 3 3 3 3 3 3
-4 -3 -3 -3 -3 -3 -3 -3 -3 -3 -3 -3 -2 -2 -2 -2 -1 -1 -0 -0 0 0 1 1 1 2 2 2 2 2 2 2 2 3 3 3 3 3
-4 -4 -4 -4 -4 -4 -4 -4 -4 -3 -3 -3 -3 -3 -2 -2 -2 -2 -1 -1 -1 -0 -0 0 1 1 1 1 1 1 1 2 2 2 2 2 2 2
-5 -5 -5 -5 -5 -4 -4 -4 -4 -4 -4 -4 -3 -3 -3 -3 -2 -2 -2 -2 -1 -1 -1 -1 -0 -0 0 0 0 1 1 1 1 1 1 1 1 1
-5 -5 -5 -5 -5 -5 -5 -5 -5 -4 -4 -4 -4 -4 -3 -3 -3 -3 -2 -2 -2 -2 -2 -2 -1 -1 -1 -1 -0 -0 -0 0 0 0 1 1 1 1
-6 -6 -6 -5 -5 -5 -5 -5 -5 -5 -5 -5 -4 -4 -4 -4 -4 -4 -3 -3 -3 -3 -3 -3 -2 -2 -2 -1 -1 -1 -1 -1 -1 -0 -0 -0 0 0
-6 -6 -6 -6 -6 -6 -6 -6 -6 -5 -5 -5 -5 -5 -4 -4 -4 -4 -4 -4 -4 -4 -3 -3 -3 -3 -3 -2 -2 -2 -2 -1 -1 -1 -1 -1 -1 -1
-7 -7 -6 -6 -6 -6 -6 -6 -6 -6 -6 -6 -5 -5 -5 -5 -4 -4 -4 -4 -4 -4 -4 -4 -4 -4 -4 -3 -3 -3 -2 -2 -2 -2 -2 -2 -1 -2
-7 -7 -7 -7 -7 -7 -6 -6 -6 -6 -6 -6 -6 -6 -5 -5 -5 -5 -5 -5 -5 -4 -4 -4 -4 -4 -4 -4 -4 -3 -3 -3 -3 -3 -2 -2 -2 -2
-8 -8 -8 -7 -7 -7 -7 -7 -7 -7 -7 -7 -7 -6 -6 -6 -6 -5 -5 -5 -5 -5 -5 -5 -5 -5 -5 -5 -4 -4 -4 -4 -4 -3 -3 -3 -3 -3
-8 -8 -8 -8 -8 -8 -7 -7 -7 -7 -7 -7 -7 -7 -6 -6 -6 -6 -6 -6 -6 -6 -6 -6 -6 -6 -6 -5 -5 -5 -5 -5 -4 -4 -4 -4 -4 -4
-9 -9 -9 -8 -8 -8 -8 -8 -8 -8 -7 -7 -7 -7 -7 -7 -7 -7 -7 -7 -7 -6 -6 -6 -6 -6 -6 -6 -6 -6 -5 -5 -5 -5 -5 -5 -5 -4
-9 -9 -9 -9 -9 -9 -9 -9 -8 -8 -8 -8 -8 -7 -7 -7 -7 -7 -7 -7 -7 -7 -7 -7 -7 -7 -7 -7 -7 -6 -6 -6 -6 -6 -6 -6 -5 -5
-10 -10 -10 -10 -10 -10 -9 -9 -9 -9 -9 -8 -8 -8 -8 -8 -8 -8 -8 -8 -8 -8 -8 -8 -8 -8 -8 -8 -7 -7 -7 -7 -7 -7 -7 -7 -6 -6
-11 -11 -11 -10 -10 -10 -10 -10 -10 -9 -9 -9 -9 -9 -8 -8 -8 -8 -8 -8 -8 -8 -8 -8 -8 -8 -8 -8 -8 -8 -8 -8 -7 -7 -7 -7 -7 -7
-11 -11 -11 -11 -11 -11 -10 -10 -10 -10 -10 -10 -10 -9 -9 -9 -9 -9 -9 -9 -9 -9 -9 -9 -9 -9 -9 -9 -9 -8 -8 -8 -8 -8 -8 -8 -8 -8
-12 -12 -12 -11 -11 -11 -11 -11 -11 -11 -10 -10 -10 -10 -10 -10 -10 -10 -9 -9 -9 -9 -9 -9 -9 -9 -9 -9 -9 -9 -9 -9 -9 -9 -9 -9 -9 -9
-13 -13 -12 -12 -12 -12 -12 -11 -11 -11 -11 -11 -11 -11 -11 -10 -10 -10 -10 -10 -10 -10 -10 -10 -10 -10 -10 -10 -10 -10 -9 -9 -9 -9 -9 -9 -9 -9
Wind_Speed
4 4 4 3 3 3 3 4 4 3 4 3 2 2 2 3 3 3 4 5 5 6 6 5 5 4 5 6 6 6 6 6 6 7 7 7 7 7
4 4 4 3 3 3 3 4 4 4 5 3 2 2 3 4 5 4 4 5 6 6 7 6 6 6 6 7 7 7 7 7 7 7 8 7 8 8
5 5 6 5 4 4 3 3 4 4 6 4 2 2 3 3 3 4 5 5 6 7 7 7 7 7 8 8 8 8 8 7 8 8 8 8 8 7
6 6 6 5 5 5 4 5 4 4 5 5 3 3 4 4 4 4 4 5 5 7 8 8 8 8 8 9 9 8 8 8 8 8 8 8 9 8
7 7 7 6 6 5 5 5 5 4 3 4 4 3 3 3 3 4 4 4 5 6 7 8 8 8 9 8 8 9 9 9 8 8 8 8 8 8
6 7 7 7 7 6 6 6 5 4 4 4 4 3 3 3 2 3 3 2 3 4 5 6 8 9 9 8 9 9 9 9 9 8 8 8 8 8
7 7 7 8 9 8 7 6 6 5 5 5 4 3 3 3 4 3 3 2 3 3 2 3 4 5 6 8 9 9 9 9 9 9 9 9 8 8
7 7 7 8 9 11 11 10 8 7 7 6 5 6 6 5 4 4 3 2 3 2 2 2 3 3 5 6 8 9 10 10 10 10 9 9 9 9
6 6 6 7 8 6 8 10 10 12 11 8 7 7 7 6 5 5 5 5 4 3 2 3 3 3 5 7 8 9 9 10 10 10 9 9 9 9
6 6 6 6 7 7 6 7 7 7 9 8 7 7 7 6 7 6 5 3 3 2 3 3 2 3 4 6 8 8 9 8 9 9 9 9 9 9
6 6 6 6 10 10 7 7 7 7 9 11 11 10 11 11 9 4 4 4 3 3 3 3 2 2 2 3 7 8 8 8 8 8 8 9 9 8
5 6 8 9 11 11 8 7 8 6 5 5 7 8 8 9 11 8 6 5 3 3 3 3 2 1 2 2 3 5 6 7 8 8 8 8 8 7
5 4 5 9 11 11 10 7 9 7 5 5 5 4 4 4 5 6 6 5 5 4 3 3 2 2 3 2 2 3 4 4 5 6 7 8 8 7
5 4 5 8 10 10 8 8 9 8 4 4 4 4 4 4 3 4 5 5 5 5 5 4 3 3 3 3 3 2 2 4 5 5 5 7 7 8
4 6 7 8 8 7 8 8 6 4 4 4 5 5 4 4 3 2 2 3 3 4 5 6 4 3 3 4 3 3 2 3 5 4 4 4 5 5
4 5 7 7 6 6 5 5 4 4 4 4 4 3 2 3 3 3 3 3 2 3 3 6 6 5 4 4 4 4 3 3 3 3 3 4 5 6
3 2 2 2 2 2 2 2 2 3 3 3 3 3 3 3 3 3 3 3 3 3 3 2 4 4 4 3 4 5 4 4 4 3 2 4 4 6
3 2 2 2 2 2 2 2 2 2 3 2 3 3 3 4 3 3 3 4 4 4 3 3 2 1 1 3 5 5 4 4 3 3 3 4 5 5
3 2 2 2 2 2 1 1 2 2 1 2 2 3 3 3 3 3 3 3 4 4 3 3 3 3 4 5 3 4 4 3 3 3 4 4 6 6
2 2 2 2 2 2 1 1 2 1 1 2 2 2 2 3 3 3 3 4 4 3 3 3 4 4 5 4 3 3 4 3 3 4 4 4 5 7
3 2 2 2 2 2 2 1 1 2 2 2 2 2 2 2 2 3 3 4 3 3 4 4 4 4 2 1 2 3 3 5 5 4 4 3 4 5
3 3 3 3 2 2 2 2 1 2 2 2 2 2 2 2 2 3 3 3 3 3 3 2 2 2 2 4 4 4 3 3 4 6 7 7 4 4
3 3 3 3 3 2 2 2 2 2 2 2 2 2 2 2 2 2 2 2 2 2 2 2 1 1 2 3 3 2 2 2 2 3 4 7 9 11
Wind_Direction
246 249 250 251 248 246 232 214 213 236 248 234 220 227 232 239 254 251 242 236 241 236 225 227 229 233 226 215 205 200 209 210 208 206 206 209 213 221
246 246 251 249 245 243 238 233 224 224 246 241 248 251 217 232 246 249 257 251 239 232 225 223 224 229 227 211 209 207 212 213 216 212 213 213 216 220
248 244 248 246 241 241 234 231 232 225 243 257 258 253 235 229 230 235 241 241 238 235 229 225 227 233 227 213 211 210 213 214 218 217 218 220 221 222
244 242 244 244 240 239 229 230 229 226 232 250 256 248 248 230 221 224 230 236 236 239 233 229 229 235 227 216 212 212 213 214 217 220 221 223 223 224
239 237 239 236 236 239 232 230 232 234 233 240 254 251 253 239 234 245 230 221 235 239 237 234 233 238 225 219 218 215 214 215 216 220 222 225 227 229
244 243 239 234 234 234 236 229 228 229 232 232 244 246 247 240 222 232 249 233 235 233 238 241 239 236 229 226 225 221 219 220 219 220 223 224 227 233
250 249 245 241 240 236 237 229 221 223 227 230 235 242 243 230 224 230 238 242 253 227 220 229 222 221 227 231 229 225 224 225 224 223 225 226 226 231
250 251 249 247 247 246 246 243 234 227 225 228 237 234 237 237 231 229 231 242 253 215 211 245 207 219 224 226 230 229 225 226 229 228 226 225 227 230
246 248 255 251 244 241 248 250 248 246 240 232 233 236 235 228 220 223 224 231 248 220 205 243 222 235 225 231 236 233 232 233 232 229 227 226 228 233
245 241 247 250 242 238 239 242 244 248 249 242 236 239 240 229 221 224 229 243 259 216 189 236 232 236 233 226 238 236 231 235 237 236 234 233 234 236
255 247 242 242 248 245 239 237 244 250 250 246 245 245 246 243 231 219 215 216 243 236 199 205 228 251 258 239 231 236 234 232 236 236 237 237 239 243
261 254 250 249 251 247 237 233 240 246 244 249 251 250 245 239 232 220 209 207 221 228 201 190 204 193 257 256 217 222 227 233 236 239 240 243 241 240
263 259 254 256 254 252 246 238 243 244 236 235 238 238 238 233 230 222 209 206 212 226 197 183 209 212 221 259 275 243 222 228 236 246 249 250 245 241
261 260 256 259 258 257 256 254 252 250 242 236 233 230 229 226 220 215 214 214 216 220 206 197 220 213 215 246 260 253 222 234 240 244 244 248 247 251
269 268 266 265 263 261 262 259 255 244 235 236 236 234 224 213 196 193 197 205 219 221 211 208 207 214 218 234 245 251 267 256 238 228 229 234 241 243
285 281 280 277 272 269 263 254 246 234 231 236 237 233 209 199 206 201 207 202 221 249 230 213 209 208 227 237 238 247 241 237 230 228 234 244 250 248
285 283 285 282 268 260 250 240 234 233 237 231 229 226 219 211 217 207 207 209 217 225 230 227 205 207 220 230 243 241 237 241 238 234 244 259 253 247
302 296 288 285 276 270 260 254 246 240 236 229 228 228 223 215 215 215 211 210 215 217 217 206 191 207 251 269 243 236 233 235 237 235 238 256 269 261
313 303 286 281 281 283 268 256 256 263 245 230 230 232 225 216 211 213 212 213 217 217 217 207 201 204 225 251 265 236 226 230 232 243 241 246 261 264
330 321 306 295 282 280 285 282 273 263 248 241 234 224 219 217 214 211 212 214 217 218 223 221 213 210 222 239 255 274 250 231 229 243 255 263 271 274
332 333 329 325 319 308 291 283 276 263 247 238 238 229 218 217 220 214 210 215 216 218 224 232 235 228 217 201 238 266 276 258 247 243 245 258 275 277
328 328 329 324 317 312 307 296 287 272 250 237 244 242 230 223 221 218 212 211 217 223 234 239 207 200 207 220 237 255 276 292 286 277 261 254 245 244
321 320 318 319 317 315 311 308 297 284 265 247 242 243 231 230 228 223 218 212 206 208 214 216 221 217 222 216 227 244 256 277 293 302 293 282 276 272
Height
1491 1492 1493 1494 1496 1497 1498 1500 1501 1500 1500 1500 1501 1502 1504 1506 1506 1508 1509 1510 1512 1513 1514 1516 1517 1519 1520 1522 1524 1526 1528 1530 1531 1533 1534 1536 1537 1539
1487 1487 1488 1489 1490 1492 1493 1494 1495 1496 1496 1495 1497 1498 1499 1501 1502 1503 1504 1505 1506 1508 1509 1511 1512 1514 1515 1517 1519 1521 1523 1525 1527 1528 1530 1531 1532 1534
1481 1482 1483 1484 1485 1486 1487 1488 1490 1491 1491 1491 1493 1493 1494 1495 1497 1498 1499 1500 1501 1502 1504 1505 1507 1509 1510 1512 1514 1515 1517 1520 1522 1523 1525 1526 1527 1529
1476 1477 1478 1479 1480 1481 1482 1483 1484 1485 1486 1486 1486 1488 1489 1490 1491 1492 1493 1494 1496 1497 1499 1500 1502 1503 1505 1506 1508 1510 1512 1514 1516 1517 1519 1520 1522 1523
1471 1471 1472 1473 1474 1475 1476 1477 1479 1480 1481 1481 1481 1482 1484 1485 1486 1487 1488 1489 1490 1491 1493 1495 1496 1498 1499 1500 1502 1504 1506 1508 1510 1512 1513 1515 1516 1518
1465 1466 1466 1467 1468 1470 1471 1472 1473 1474 1475 1476 1476 1477 1478 1479 1480 1481 1481 1483 1484 1486 1487 1489 1490 1492 1493 1495 1497 1498 1500 1502 1504 1506 1507 1509 1511 1512
1459 1460 1461 1461 1463 1464 1466 1467 1468 1469 1469 1470 1471 1472 1472 1474 1475 1475 1476 1477 1478 1480 1481 1483 1484 1486 1487 1489 1491 1492 1494 1496 1498 1500 1502 1503 1505 1506
1453 1454 1455 1456 1457 1459 1460 1461 1463 1463 1464 1465 1465 1466 1467 1469 1470 1470 1471 1472 1472 1475 1476 1477 1479 1480 1481 1483 1485 1486 1488 1490 1492 1494 1496 1497 1499 1500
1448 1449 1449 1450 1452 1453 1454 1455 1456 1457 1459 1460 1460 1460 1462 1463 1464 1465 1466 1467 1467 1469 1471 1471 1473 1474 1476 1477 1479 1480 1482 1484 1486 1488 1489 1491 1492 1494
1443 1443 1444 1445 1446 1447 1448 1449 1450 1451 1452 1453 1454 1455 1457 1458 1459 1460 1460 1461 1462 1464 1465 1466 1466 1468 1470 1471 1473 1475 1476 1478 1480 1481 1483 1484 1486 1488
1437 1438 1438 1439 1440 1442 1442 1443 1444 1445 1446 1448 1449 1450 1451 1452 1453 1454 1455 1456 1456 1457 1460 1461 1461 1463 1464 1466 1468 1469 1471 1472 1474 1475 1477 1478 1480 1481
1432 1432 1433 1433 1434 1436 1437 1437 1438 1439 1440 1441 1443 1444 1445 1446 1447 1448 1449 1450 1451 1452 1454 1456 1457 1458 1459 1460 1462 1463 1465 1466 1468 1469 1470 1472 1473 1475
1426 1426 1427 1428 1429 1430 1431 1432 1432 1434 1434 1435 1436 1437 1438 1439 1441 1442 1444 1445 1446 1447 1449 1451 1452 1453 1454 1454 1456 1458 1459 1460 1462 1463 1464 1466 1467 1468
1422 1422 1422 1423 1424 1425 1425 1426 1427 1428 1429 1430 1431 1431 1432 1433 1435 1437 1439 1440 1441 1443 1444 1446 1446 1448 1448 1449 1450 1451 1453 1455 1456 1457 1458 1460 1461 1462
1417 1418 1418 1418 1419 1419 1420 1421 1422 1423 1424 1424 1425 1426 1427 1429 1430 1431 1433 1435 1436 1437 1438 1440 1441 1442 1444 1444 1444 1445 1446 1448 1450 1451 1452 1453 1454 1455
1413 1413 1413 1413 1414 1414 1415 1415 1416 1418 1418 1419 1420 1421 1423 1424 1425 1426 1428 1429 1430 1431 1433 1435 1436 1437 1438 1439 1440 1440 1441 1442 1443 1445 1446 1447 1448 1449
1409 1409 1408 1408 1408 1408 1409 1410 1411 1412 1413 1414 1415 1416 1417 1419 1420 1421 1422 1423 1424 1425 1427 1429 1431 1432 1433 1434 1434 1434 1436 1437 1438 1439 1440 1440 1441 1442
1405 1404 1404 1404 1404 1404 1405 1405 1406 1407 1408 1409 1410 1411 1413 1414 1415 1416 1417 1418 1419 1420 1422 1423 1425 1426 1427 1428 1430 1429 1430 1431 1432 1434 1434 1434 1434 1436
1401 1401 1401 1401 1401 1401 1401 1402 1402 1403 1404 1405 1406 1407 1408 1409 1410 1411 1412 1413 1414 1416 1417 1418 1420 1421 1421 1421 1422 1425 1426 1426 1427 1428 1428 1429 1428 1429
1398 1398 1398 1398 1398 1398 1398 1398 1399 1399 1400 1401 1402 1402 1403 1404 1406 1407 1408 1409 1410 1411 1412 1413 1415 1416 1417 1417 1417 1418 1421 1421 1422 1422 1422 1422 1422 1423
1396 1396 1396 1395 1395 1395 1395 1395 1396 1396 1397 1397 1398 1398 1399 1400 1401 1402 1404 1404 1405 1406 1407 1408 1409 1411 1412 1413 1412 1411 1414 1416 1417 1417 1417 1417 1416 1416
1394 1393 1393 1393 1393 1393 1393 1393 1393 1393 1394 1394 1394 1395 1396 1397 1397 1398 1399 1400 1401 1402 1403 1404 1405 1407 1408 1408 1407 1407 1408 1410 1411 1412 1412 1412 1411 1410
1391 1391 1391 1391 1390 1390 1390 1390 1390 1390 1390 1391 1391 1392 1392 1393 1394 1395 1396 1397 1398 1398 1399 1400 1401 1402 1403 1403 1403 1403 1403 1404 1405 1405 1405 1406 1406 1406